Flag for Germany Weather past 2 weeks in Flensburg, Schleswig-Holstein, Germany

Now
45 °F

Passing clouds.


Feels Like: 38 °F
Forecast: 44 / 54 °F
Wind: 14 mph from North

Location: Soenderborg Lufthavn

Current Time: Apr 22, 2015 at 6:46:33 AM

Latest Report: Apr 22, 2015 at 5:55 AM


Visibility: N/A

Pressure: 30.21 "Hg

Humidity: 81%

Dew point: 39 °F

Location of FlensburgLocation

Historic Weather in Flensburg — Graph

°F

Flensburg temperature yesterday

Maximum temperature yesterday: 59 °F (at 2:50 PM)
Minimum temperature yesterday: 46 °F (at 5:50 AM)
Average temperature yesterday: 52 °F

Past Weeks' High & Low Weather Summary

 TemperatureHumidityPressure
High66 °F (Apr 11, 1:50 PM)100% (Apr 11, 7:20 AM)30.48 "Hg (Apr 11, 7:20 AM)
Low37 °F (Apr 10, 6:50 AM)34% (Apr 20, 5:50 PM)29.77 "Hg (Apr 15, 2:50 PM)
Average49 °F71%30.18 "Hg
* Reported Apr 7 6:20 AM — Apr 21 9:50 PM, Flensburg, Weather by CustomWeather, © 2015

Note: Actual official high and low records may vary slightly from our data, if they occured in-between our weather recording intervals... More about our weather records

Advertising

Flensburg weather history for previous 24 hours

 ConditionsComfort  
Time TempWeatherWind HumidityBarometerVisibility
9:50 PM
Tue, Apr 21
46 °FPassing clouds.10 mph76%30.30 "HgN/A
8:50 PM48 °FPassing clouds.12 mph71%30.30 "HgN/A
7:50 PM50 °FSunny.15 mph67%30.30 "Hg10 mi
6:50 PM52 °FSunny.15 mph62%30.30 "Hg10 mi
5:50 PM54 °FSunny.15 mph67%30.30 "Hg10 mi
4:50 PM55 °FSunny.17 mph63%30.30 "Hg10 mi
3:50 PM57 °FSunny.18 mph55%30.30 "Hg10 mi
2:50 PM59 °FSunny.16 mph55%30.30 "Hg10 mi
1:50 PM57 °FSunny.17 mph59%30.33 "Hg10 mi
1:20 PM57 °FSunny.17 mph63%30.33 "Hg10 mi
11:50 AM57 °FSunny.14 mph55%30.30 "Hg10 mi
10:51 AM55 °FSunny.14 mph59%30.30 "Hg10 mi
9:50 AM52 °FSunny.14 mph62%30.30 "Hg10 mi
8:50 AM50 °FSunny.13 mph67%30.30 "Hg10 mi
8:20 AM48 °FSunny.12 mph66%30.30 "Hg10 mi
6:50 AM46 °FClear.14 mph71%30.30 "Hg10 mi
Weather by CustomWeather, © 2015

See weather overviewHow to use our weather pages